Flag for Ireland Weather past 2 weeks in Dublin, Ireland

Now
50 °F

Partly sunny.


Feels Like: 46 °F
Forecast: 45 / 59 °F
Wind: 12 mph from Northwest

Location: Dublin Airport

Current Time: Aug 23, 2014 at 9:39:32 AM

Latest Report: Aug 23, 2014 at 9:00 AM


Visibility: N/A

Pressure: 30.04 "Hg

Humidity: 88%

Dew point: 46 °F

Location of DublinLocation

Historic Weather in Dublin — Graph

°F

Dublin temperature yesterday

Maximum temperature yesterday: 61 °F (at 1:30 PM)
Minimum temperature yesterday: 45 °F (at 6:00 AM)
Average temperature yesterday: 52 °F

Past Weeks' High & Low Weather Summary

 TemperatureHumidityPressure
High66 °F (Aug 9, 1:00 PM)100% (Aug 10, 12:30 AM)30.18 "Hg (Aug 10, 12:30 AM)
Low41 °F (Aug 20, 2:30 AM)48% (Aug 18, 2:30 PM)29.39 "Hg (Aug 10, 6:00 AM)
Average55 °F79%29.82 "Hg
* Reported Aug 8 8:00 AM — Aug 23 8:30 AM, Dublin, Weather by CustomWeather, © 2014

Note: Actual official high and low records may vary slightly from our data, if they occured in-between our weather recording intervals... More about our weather records

Advertising

Dublin weather history for previous 24 hours

 ConditionsComfort  
Time TempWeatherWind HumidityBarometerVisibility
8:30 AM
Aug 23
48 °FScattered clouds.12 mph94%30.01 "HgN/A
8:00 AM46 °FPassing clouds.13 mph93%30.01 "HgN/A
7:30 AM45 °FPassing clouds.12 mph93%30.01 "HgN/A
7:00 AM43 °FPassing clouds.8 mph100%30.01 "HgN/A
6:30 AM43 °FPassing clouds.12 mph93%30.01 "HgN/A
6:00 AM43 °FPassing clouds.12 mph93%29.98 "HgN/A
5:30 AM43 °FPassing clouds.12 mph93%29.98 "HgN/A
5:00 AM43 °FPassing clouds.9 mph93%29.98 "HgN/A
4:30 AM43 °FPassing clouds.10 mph93%29.98 "HgN/A
3:30 AM43 °FPassing clouds.10 mph93%29.98 "HgN/A
3:00 AM45 °FPassing clouds.10 mph93%29.98 "HgN/A
2:30 AM43 °FPassing clouds.9 mph93%29.98 "HgN/A
2:00 AM43 °FPassing clouds.10 mph93%29.98 "HgN/A
1:30 AM43 °FPassing clouds.9 mph93%30.01 "HgN/A
1:00 AM45 °FPassing clouds.8 mph93%30.01 "HgN/A
12:30 AM45 °FPassing clouds.8 mph87%30.01 "HgN/A
12:00 AM46 °FPassing clouds.8 mph87%29.98 "HgN/A
11:30 PM
Aug 22
46 °FPassing clouds.8 mph87%29.98 "HgN/A
11:00 PM48 °FPassing clouds.8 mph82%30.01 "HgN/A
10:30 PM50 °FPassing clouds.8 mph82%29.98 "HgN/A
10:00 PM50 °FPassing clouds.7 mph82%29.98 "HgN/A
9:30 PM46 °FPartly sunny.6 mph87%29.98 "HgN/A
9:00 PM50 °FPartly sunny.7 mph76%29.98 "HgN/A
8:30 PM52 °FScattered clouds.8 mph72%29.98 "HgN/A
8:00 PM55 °FPartly sunny.12 mph63%29.95 "HgN/A
7:30 PM55 °FPartly sunny.9 mph67%29.95 "HgN/A
7:00 PM55 °FPartly sunny.10 mph67%29.95 "HgN/A
6:30 PM57 °FBroken clouds.8 mph67%29.95 "HgN/A
6:00 PM57 °FBroken clouds.8 mph67%29.95 "HgN/A
5:30 PM55 °FSprinkles. Scattered clouds.13 mph77%29.95 "HgN/A
5:00 PM57 °FScattered clouds.12 mph55%29.95 "HgN/A
4:30 PM57 °FScattered clouds.13 mph59%29.95 "HgN/A
4:00 PM61 °FScattered clouds.12 mph52%29.95 "HgN/A
3:30 PM59 °FBroken clouds.10 mph59%29.95 "HgN/A
3:00 PM57 °FBroken clouds.10 mph59%29.95 "HgN/A
2:30 PM59 °FBroken clouds.10 mph59%29.95 "HgN/A
2:00 PM59 °FPartly sunny.14 mph59%29.95 "HgN/A
1:30 PM61 °FBroken clouds.12 mph55%29.95 "HgN/A
1:00 PM57 °FBroken clouds.15 mph59%29.95 "HgN/A
12:30 PM57 °FScattered clouds.15 mph63%29.95 "HgN/A
12:00 PM57 °FScattered clouds.13 mph63%29.95 "HgN/A
11:30 AM55 °FScattered clouds.13 mph67%29.95 "HgN/A
11:00 AM55 °FScattered clouds.12 mph67%29.92 "HgN/A
10:30 AM55 °FScattered clouds.14 mph67%29.92 "HgN/A
10:00 AM54 °FPassing clouds.14 mph82%29.92 "HgN/A
9:30 AM54 °FPassing clouds.12 mph82%29.92 "HgN/A
9:00 AM52 °FPassing clouds.12 mph82%29.92 "HgN/A
Weather by CustomWeather, © 2014

See weather overviewHow to use our weather pages